SWA209 MRLB-MHTG

Flight info

Callsign SWA209
Flight time 0h 51m
Altitude 30000
Route GUARD2 IMOLA UM328 MGA UA502 LIBIS LIBIS1A
Aircraft B38M/M-SDE1FGHILORVWXY/HB1

Departure

Time 2026-05-07 20:55
Airport Daniel Oduber Quirós International Airport (MRLB)

Arrival

Time 2026-05-07 21:47
Airport Toncontín Airport (MHTG)
Time Latitude Longitude Altitude Speed Heading
2026-05-07 20:19 10.60002 -85.53507 278 ft 0 kts 340°
2026-05-07 20:47 10.60001 -85.53507 276 ft 1 kts 340°
2026-05-07 20:48 10.59978 -85.53499 278 ft 4 kts 340°
2026-05-07 20:48 10.59958 -85.53492 282 ft 3 kts 340°
2026-05-07 20:48 10.59933 -85.53480 283 ft 4 kts 328°
2026-05-07 20:48 10.59914 -85.53466 278 ft 0 kts 317°
2026-05-07 20:52 10.59924 -85.53468 280 ft 3 kts
2026-05-07 20:52 10.59936 -85.53452 276 ft 4 kts 75°
2026-05-07 20:52 10.59943 -85.53416 277 ft 7 kts 79°
2026-05-07 20:53 10.59939 -85.53362 277 ft 8 kts 118°
2026-05-07 20:53 10.59882 -85.53328 277 ft 12 kts 158°
2026-05-07 20:53 10.59794 -85.53299 278 ft 11 kts 172°
2026-05-07 20:53 10.59736 -85.53337 276 ft 0 kts 242°
2026-05-07 20:54 10.59731 -85.53349 276 ft 3 kts 249°
2026-05-07 20:54 10.59727 -85.53362 276 ft 1 kts 252°
2026-05-07 20:54 10.59725 -85.53368 276 ft 0 kts 252°
2026-05-07 20:54 10.59723 -85.53375 276 ft 5 kts 252°
2026-05-07 20:55 10.59642 -85.53596 274 ft 72 kts 249°
2026-05-07 20:55 10.59392 -85.54290 267 ft 137 kts 251°
2026-05-07 20:55 10.59062 -85.55297 682 ft 156 kts 254°
2026-05-07 20:55 10.58674 -85.56349 1373 ft 162 kts 245°
2026-05-07 20:56 10.58208 -85.57469 1890 ft 181 kts 245°
2026-05-07 20:56 10.57700 -85.58722 2392 ft 203 kts 246°
2026-05-07 20:56 10.57135 -85.60133 2833 ft 228 kts 247°
2026-05-07 20:56 10.56505 -85.61711 3360 ft 252 kts 247°
2026-05-07 20:57 10.55710 -85.63365 3958 ft 270 kts 231°
2026-05-07 20:57 10.54209 -85.64539 4641 ft 276 kts 195°
2026-05-07 20:57 10.52344 -85.64656 5564 ft 270 kts 162°
2026-05-07 20:57 10.50750 -85.63753 6410 ft 267 kts 131°
2026-05-07 20:58 10.49790 -85.62166 7268 ft 266 kts 105°
2026-05-07 20:58 10.49737 -85.60301 8116 ft 271 kts 75°
2026-05-07 20:58 10.50688 -85.58639 8936 ft 280 kts 45°
2026-05-07 20:58 10.52413 -85.57660 9707 ft 293 kts 21°
2026-05-07 20:59 10.54342 -85.56907 10362 ft 302 kts 26°
2026-05-07 20:59 10.56319 -85.56018 10786 ft 321 kts 26°
2026-05-07 20:59 10.58503 -85.55271 11191 ft 341 kts 10°
2026-05-07 20:59 10.60919 -85.55350 11750 ft 357 kts 349°
2026-05-07 21:00 10.63267 -85.56221 12457 ft 364 kts 339°
2026-05-07 21:00 10.64825 -85.56850 12945 ft 368 kts 340°
2026-05-07 21:00 10.67228 -85.57812 13730 ft 373 kts 340°
2026-05-07 21:00 10.69661 -85.58795 14444 ft 377 kts 340°
2026-05-07 21:01 10.72109 -85.59786 15187 ft 381 kts 340°
2026-05-07 21:01 10.74592 -85.60793 15914 ft 384 kts 340°
2026-05-07 21:01 10.77058 -85.61795 16595 ft 389 kts 340°
2026-05-07 21:01 10.79583 -85.62820 17283 ft 392 kts 340°
2026-05-07 21:02 10.82130 -85.63854 17920 ft 397 kts 340°
2026-05-07 21:02 10.84711 -85.64903 18516 ft 400 kts 340°
2026-05-07 21:02 10.87315 -85.65961 19076 ft 404 kts 340°
2026-05-07 21:02 10.89934 -85.67025 19612 ft 407 kts 340°
2026-05-07 21:03 10.92575 -85.68098 20129 ft 411 kts 341°
2026-05-07 21:03 10.95247 -85.69185 20605 ft 416 kts 341°
2026-05-07 21:03 10.97948 -85.70283 21128 ft 419 kts 341°
2026-05-07 21:03 11.00670 -85.71390 21621 ft 423 kts 341°
2026-05-07 21:04 11.03415 -85.72507 22107 ft 426 kts 341°
2026-05-07 21:04 11.06147 -85.73619 22563 ft 430 kts 341°
2026-05-07 21:04 11.08933 -85.74753 23024 ft 434 kts 341°
2026-05-07 21:04 11.11748 -85.75898 23464 ft 437 kts 341°
2026-05-07 21:05 11.14586 -85.77055 23878 ft 439 kts 341°
2026-05-07 21:05 11.17421 -85.78209 24404 ft 437 kts 341°
2026-05-07 21:05 11.20242 -85.79357 24955 ft 436 kts 341°
2026-05-07 21:05 11.23057 -85.80497 25493 ft 435 kts 341°
2026-05-07 21:06 11.25865 -85.81633 26048 ft 434 kts 341°
2026-05-07 21:06 11.28670 -85.82768 26614 ft 432 kts 341°
2026-05-07 21:06 11.31468 -85.83901 27194 ft 431 kts 341°
2026-05-07 21:06 11.34253 -85.85029 27762 ft 431 kts 341°
2026-05-07 21:07 11.37031 -85.86156 28333 ft 429 kts 341°
2026-05-07 21:07 11.39770 -85.87265 28900 ft 428 kts 341°
2026-05-07 21:07 11.42573 -85.88401 29483 ft 427 kts 341°
2026-05-07 21:07 11.45328 -85.89518 29876 ft 427 kts 341°
2026-05-07 21:08 11.48040 -85.90617 29854 ft 422 kts 341°
2026-05-07 21:08 11.53492 -85.92829 29852 ft 421 kts 341°
2026-05-07 21:09 11.58944 -85.95040 29866 ft 421 kts 341°
2026-05-07 21:09 11.64390 -85.97251 29861 ft 421 kts 341°
2026-05-07 21:10 11.69849 -85.99468 29864 ft 422 kts 341°
2026-05-07 21:10 11.75313 -86.01688 29869 ft 422 kts 341°
2026-05-07 21:11 11.80743 -86.03895 29872 ft 422 kts 341°
2026-05-07 21:11 11.88936 -86.07278 29852 ft 424 kts 335°
2026-05-07 21:12 11.91400 -86.08959 29151 ft 432 kts 320°
2026-05-07 21:12 11.93426 -86.11326 27599 ft 456 kts 298°
2026-05-07 21:12 11.94112 -86.14006 30212 ft 339 kts 270°
2026-05-07 21:12 11.93874 -86.16197 32324 ft 285 kts 248°
2026-05-07 21:13 11.93069 -86.17991 32626 ft 286 kts 232°
2026-05-07 21:13 11.91680 -86.19516 31143 ft 317 kts 208°
2026-05-07 21:13 11.89561 -86.20409 29807 ft 339 kts 182°
2026-05-07 21:13 11.87292 -86.20240 29789 ft 322 kts 157°
2026-05-07 21:14 11.85317 -86.19187 29915 ft 324 kts 138°
2026-05-07 21:14 11.83704 -86.17531 29825 ft 335 kts 122°
2026-05-07 21:14 11.82682 -86.15375 29827 ft 344 kts 103°
2026-05-07 21:14 11.82461 -86.12914 29831 ft 357 kts 84°
2026-05-07 21:15 11.83122 -86.10426 29825 ft 372 kts 65°
2026-05-07 21:15 11.84652 -86.08240 29823 ft 387 kts 45°
2026-05-07 21:15 11.86950 -86.06760 29832 ft 399 kts 22°
2026-05-07 21:15 11.89679 -86.06307 29845 ft 410 kts 360°
2026-05-07 21:16 11.92482 -86.06939 29854 ft 419 kts 338°
2026-05-07 21:16 11.95063 -86.08375 29860 ft 424 kts 333°
2026-05-07 21:16 12.00394 -86.10947 29849 ft 424 kts 338°
2026-05-07 21:17 12.05759 -86.13497 29832 ft 431 kts 338°
2026-05-07 21:17 12.08520 -86.14807 29826 ft 443 kts 338°
2026-05-07 21:17 12.11347 -86.16159 29823 ft 454 kts 337°
2026-05-07 21:18 12.14209 -86.17608 29815 ft 465 kts 330°
2026-05-07 21:18 12.16836 -86.19537 29824 ft 476 kts 326°
2026-05-07 21:18 12.22305 -86.23565 29819 ft 491 kts 326°
2026-05-07 21:19 12.27926 -86.27706 29841 ft 504 kts 326°
2026-05-07 21:19 12.33626 -86.31911 29840 ft 506 kts 326°
2026-05-07 21:20 12.39331 -86.36122 29838 ft 506 kts 326°
2026-05-07 21:20 12.45037 -86.40335 29836 ft 505 kts 326°
2026-05-07 21:21 12.50744 -86.44552 29842 ft 505 kts 326°
2026-05-07 21:21 12.56407 -86.48739 29840 ft 505 kts 326°
2026-05-07 21:22 12.62115 -86.52961 29842 ft 505 kts 326°
2026-05-07 21:22 12.67821 -86.57185 29841 ft 505 kts 326°
2026-05-07 21:23 12.73527 -86.61410 29845 ft 506 kts 326°
2026-05-07 21:23 12.76320 -86.63480 29856 ft 485 kts 326°
2026-05-07 21:23 12.79004 -86.65469 29849 ft 467 kts 326°
2026-05-07 21:24 12.81589 -86.67385 29850 ft 450 kts 326°
2026-05-07 21:24 12.84057 -86.69214 29856 ft 436 kts 326°
2026-05-07 21:24 12.88935 -86.72833 29844 ft 432 kts 326°
2026-05-07 21:25 12.93803 -86.76444 29852 ft 431 kts 326°
2026-05-07 21:25 12.98636 -86.80077 29811 ft 424 kts 326°
2026-05-07 21:26 13.00991 -86.81848 29606 ft 415 kts 326°
2026-05-07 21:26 13.03299 -86.83584 29322 ft 408 kts 326°
2026-05-07 21:26 13.05580 -86.85300 28895 ft 406 kts 326°
2026-05-07 21:26 13.07831 -86.86994 28393 ft 406 kts 326°
2026-05-07 21:27 13.10105 -86.88706 27953 ft 405 kts 326°
2026-05-07 21:27 13.12372 -86.90412 27534 ft 403 kts 326°
2026-05-07 21:27 13.14630 -86.92104 27107 ft 401 kts 327°
2026-05-07 21:27 13.16899 -86.93776 26654 ft 401 kts 327°
2026-05-07 21:28 13.19158 -86.95443 26276 ft 398 kts 327°
2026-05-07 21:28 13.21400 -86.97099 25882 ft 396 kts 327°
2026-05-07 21:28 13.23631 -86.98747 25471 ft 393 kts 327°
2026-05-07 21:28 13.25831 -87.00373 25076 ft 386 kts 327°
2026-05-07 21:29 13.27991 -87.01970 24689 ft 382 kts 327°
2026-05-07 21:29 13.30153 -87.03569 24289 ft 382 kts 327°
2026-05-07 21:29 13.32311 -87.05165 23902 ft 382 kts 327°
2026-05-07 21:29 13.34470 -87.06762 23507 ft 383 kts 327°
2026-05-07 21:30 13.36633 -87.08363 23045 ft 383 kts 327°
2026-05-07 21:30 13.38760 -87.09938 22640 ft 381 kts 326°
2026-05-07 21:30 13.40908 -87.11528 22238 ft 379 kts 326°
2026-05-07 21:30 13.43043 -87.13110 21850 ft 377 kts 326°
2026-05-07 21:31 13.45172 -87.14687 21444 ft 376 kts 326°
2026-05-07 21:31 13.47267 -87.16239 21063 ft 366 kts 326°
2026-05-07 21:31 13.49306 -87.17749 20744 ft 359 kts 326°
2026-05-07 21:31 13.51319 -87.19241 20382 ft 353 kts 326°
2026-05-07 21:32 13.53303 -87.20712 19999 ft 348 kts 326°
2026-05-07 21:32 13.55279 -87.22177 19371 ft 353 kts 326°
2026-05-07 21:32 13.57256 -87.23643 18876 ft 354 kts 326°
2026-05-07 21:32 13.59249 -87.25121 18402 ft 353 kts 326°
2026-05-07 21:33 13.61374 -87.26367 17837 ft 350 kts 343°
2026-05-07 21:33 13.63740 -87.26774 17380 ft 343 kts 359°
2026-05-07 21:33 13.66122 -87.26926 16853 ft 342 kts 358°
2026-05-07 21:33 13.68480 -87.27084 16410 ft 337 kts 359°
2026-05-07 21:34 13.70806 -87.27230 15984 ft 332 kts 359°
2026-05-07 21:34 13.73100 -87.27371 15561 ft 328 kts 359°
2026-05-07 21:34 13.75370 -87.27508 15145 ft 324 kts 359°
2026-05-07 21:34 13.77581 -87.27641 14722 ft 321 kts 359°
2026-05-07 21:35 13.79805 -87.27775 14241 ft 319 kts 359°
2026-05-07 21:35 13.82018 -87.27908 13777 ft 316 kts 359°
2026-05-07 21:35 13.84197 -87.28039 13303 ft 313 kts 359°
2026-05-07 21:35 13.86368 -87.28153 12791 ft 311 kts
2026-05-07 21:36 13.88454 -87.27730 12279 ft 304 kts 22°
2026-05-07 21:36 13.90459 -87.27040 11823 ft 303 kts 20°
2026-05-07 21:36 13.92468 -87.26375 11313 ft 304 kts 20°
2026-05-07 21:36 13.94489 -87.25705 10801 ft 305 kts 19°
2026-05-07 21:37 13.96501 -87.25036 10273 ft 303 kts 19°
2026-05-07 21:37 13.98493 -87.24375 9772 ft 299 kts 19°
2026-05-07 21:37 14.00463 -87.23720 9229 ft 296 kts 19°
2026-05-07 21:37 14.02396 -87.23035 8681 ft 292 kts 26°
2026-05-07 21:38 14.03993 -87.21801 8135 ft 286 kts 47°
2026-05-07 21:38 14.05404 -87.20373 7652 ft 283 kts 46°
2026-05-07 21:38 14.06900 -87.19078 7183 ft 288 kts 37°
2026-05-07 21:38 14.08646 -87.18100 7024 ft 282 kts 24°
2026-05-07 21:39 14.10498 -87.17581 7049 ft 268 kts 11°
2026-05-07 21:39 14.12287 -87.17512 7044 ft 249 kts 358°
2026-05-07 21:39 14.13976 -87.17816 6938 ft 246 kts 346°
2026-05-07 21:39 14.15572 -87.18484 6705 ft 251 kts 334°
2026-05-07 21:40 14.17009 -87.19486 6521 ft 250 kts 321°
2026-05-07 21:40 14.18228 -87.20781 6507 ft 252 kts 308°
2026-05-07 21:40 14.19159 -87.22289 6504 ft 248 kts 295°
2026-05-07 21:40 14.19762 -87.23951 6493 ft 248 kts 283°
2026-05-07 21:41 14.20012 -87.25708 6427 ft 248 kts 271°
2026-05-07 21:41 14.19899 -87.27450 6479 ft 248 kts 259°
2026-05-07 21:41 14.19457 -87.29177 6504 ft 250 kts 247°
2026-05-07 21:41 14.18683 -87.30769 6461 ft 247 kts 234°
2026-05-07 21:42 14.17624 -87.32145 6480 ft 240 kts 222°
2026-05-07 21:42 14.16362 -87.33125 6466 ft 221 kts 204°
2026-05-07 21:42 14.14953 -87.33666 6415 ft 214 kts 188°
2026-05-07 21:42 14.13498 -87.33787 6362 ft 208 kts 173°
2026-05-07 21:43 14.12134 -87.33495 6275 ft 191 kts 157°
2026-05-07 21:43 14.11001 -87.32967 6163 ft 171 kts 152°
2026-05-07 21:43 14.09920 -87.32442 6017 ft 171 kts 151°
2026-05-07 21:43 14.08901 -87.31816 5869 ft 170 kts 142°
2026-05-07 21:44 14.08064 -87.31034 5707 ft 154 kts 131°
2026-05-07 21:44 14.07477 -87.30183 5657 ft 144 kts 120°
2026-05-07 21:44 14.06958 -87.29300 5489 ft 145 kts 122°
2026-05-07 21:44 14.06407 -87.28430 5307 ft 145 kts 123°
2026-05-07 21:45 14.05836 -87.27533 5146 ft 153 kts 121°
2026-05-07 21:45 14.05253 -87.26619 4988 ft 151 kts 122°
2026-05-07 21:45 14.04675 -87.25723 4853 ft 150 kts 124°
2026-05-07 21:45 14.04063 -87.24854 4737 ft 150 kts 118°
2026-05-07 21:46 14.03791 -87.23835 4491 ft 146 kts 94°
2026-05-07 21:46 14.03960 -87.22795 4072 ft 151 kts 70°
2026-05-07 21:46 14.04583 -87.21990 3749 ft 146 kts 35°
2026-05-07 21:46 14.05545 -87.21756 3350 ft 146 kts 352°
2026-05-07 21:47 14.06369 -87.21671 3275 ft 84 kts 31°
2026-05-07 21:47 14.06786 -87.21493 3267 ft 35 kts 18°
2026-05-07 21:47 14.06867 -87.21518 3263 ft 6 kts 225°
2026-05-07 21:47 14.06833 -87.21538 3263 ft 6 kts 206°
2026-05-07 21:48 14.06794 -87.21556 3262 ft 6 kts 202°
2026-05-07 21:48 14.06753 -87.21572 3266 ft 6 kts 199°
2026-05-07 21:48 14.06728 -87.21580 3267 ft 5 kts 197°
2026-05-07 21:48 14.06695 -87.21590 3267 ft 5 kts 198°
2026-05-07 21:49 14.06657 -87.21603 3268 ft 4 kts 198°
2026-05-07 21:49 14.06625 -87.21615 3269 ft 6 kts 201°
2026-05-07 21:49 14.06589 -87.21629 3269 ft 9 kts 201°
2026-05-07 21:49 14.06500 -87.21662 3270 ft 11 kts 199°
2026-05-07 21:50 14.06449 -87.21680 3272 ft 12 kts 198°
2026-05-07 21:50 14.06372 -87.21706 3273 ft 11 kts 198°
2026-05-07 21:50 14.06301 -87.21730 3276 ft 10 kts 199°
2026-05-07 21:50 14.06242 -87.21751 3271 ft 8 kts 199°
2026-05-07 21:51 14.06174 -87.21775 3268 ft 13 kts 198°
2026-05-07 21:51 14.06090 -87.21802 3270 ft 12 kts 197°
2026-05-07 21:51 14.06031 -87.21823 3276 ft 7 kts 200°
2026-05-07 21:51 14.05995 -87.21837 3278 ft 4 kts 202°
2026-05-07 21:52 14.05982 -87.21846 3278 ft 1 kts 224°
2026-05-07 21:52 14.05975 -87.21859 3277 ft 3 kts 251°
2026-05-07 21:52 14.05976 -87.21881 3282 ft 4 kts 279°
2026-05-07 21:52 14.05978 -87.21890 3282 ft 0 kts 282°